TimeEST,TemperatureF,Dew PointF,Humidity,Sea Level PressureIn,VisibilityMPH,Wind Direction,Wind SpeedMPH,Gust SpeedMPH,PrecipitationIn,Events,Conditions,WindDirDegrees,DateUTC
12:51 AM,25.0,23.0,92,30.08,5.0,Calm,Calm,-,N/A,,Clear,0,2012-11-08 05:51:00
1:51 AM,25.0,21.9,88,30.08,5.0,Calm,Calm,-,N/A,,Clear,0,2012-11-08 06:51:00
2:51 AM,25.0,21.0,85,30.09,6.0,Calm,Calm,-,N/A,,Clear,0,2012-11-08 07:51:00
3:07 AM,24.8,21.2,86,30.02,5.0,Calm,Calm,-,N/A,,Partly Cloudy,0,2012-11-08 08:07:00
3:51 AM,23.0,19.9,88,30.11,5.0,Calm,Calm,-,N/A,,Partly Cloudy,0,2012-11-08 08:51:00
4:51 AM,23.0,19.9,88,30.12,5.0,Calm,Calm,-,N/A,,Clear,0,2012-11-08 09:51:00
5:51 AM,21.0,19.0,92,30.14,6.0,Calm,Calm,-,N/A,,Clear,0,2012-11-08 10:51:00
6:51 AM,21.0,17.1,85,30.16,6.0,Calm,Calm,-,N/A,,Clear,0,2012-11-08 11:51:00
7:51 AM,21.0,18.0,88,30.19,5.0,Calm,Calm,-,N/A,,Clear,0,2012-11-08 12:51:00
8:51 AM,28.9,25.0,85,30.20,6.0,Calm,Calm,-,N/A,,Clear,0,2012-11-08 13:51:00
9:51 AM,36.0,25.0,64,30.20,10.0,Calm,Calm,-,N/A,,Clear,0,2012-11-08 14:51:00
10:51 AM,39.0,21.0,49,30.20,10.0,WNW,5.8,-,0.00,Rain,Light Rain,300,2012-11-08 15:51:00
11:51 AM,39.9,21.0,47,30.20,10.0,WNW,12.7,16.1,N/A,,Clear,290,2012-11-08 16:51:00
12:51 PM,41.0,19.0,41,30.19,10.0,West,8.1,-,N/A,,Clear,270,2012-11-08 17:51:00
1:51 PM,42.1,19.0,40,30.17,10.0,WSW,10.4,-,N/A,,Clear,250,2012-11-08 18:51:00
2:51 PM,42.1,19.9,41,30.16,10.0,West,9.2,-,N/A,,Clear,280,2012-11-08 19:51:00
3:51 PM,42.1,19.9,41,30.17,10.0,WNW,6.9,-,N/A,,Clear,300,2012-11-08 20:51:00
4:51 PM,39.9,21.0,47,30.19,10.0,WNW,4.6,-,N/A,,Clear,300,2012-11-08 21:51:00
5:51 PM,36.0,21.0,55,30.22,10.0,Calm,Calm,-,N/A,,Clear,0,2012-11-08 22:51:00
6:51 PM,30.0,21.0,69,30.25,10.0,Calm,Calm,-,N/A,,Clear,0,2012-11-08 23:51:00
7:51 PM,28.0,21.9,78,30.24,10.0,Calm,Calm,-,N/A,,Clear,0,2012-11-09 00:51:00
8:51 PM,27.0,21.0,78,30.25,10.0,Calm,Calm,-,N/A,,Clear,0,2012-11-09 01:51:00
9:51 PM,25.0,21.0,85,30.24,10.0,Calm,Calm,-,N/A,,Clear,0,2012-11-09 02:51:00
10:51 PM,24.1,21.0,88,30.24,9.0,Calm,Calm,-,N/A,,Clear,0,2012-11-09 03:51:00
11:51 PM,23.0,19.9,88,30.24,9.0,Calm,Calm,-,N/A,,Clear,0,2012-11-09 04:51:00